Location: Unspecified
(43.5254°N, 0.0000°E)
Time: 14:09:59
(UTC+00:00)

KKS-1 - Visible Passes

Search period start: 04 April 2026 00:00
Search period end: 14 April 2026 00:00
Orbit: 615 x 626 km, 98.1° (Epoch: 29 March)

Date Brightness Start Highest point End Pass type
(mag) Time Alt. Az. Time Alt. Az. Time Alt. Az.
4 Apr ? 01:28:11 10° N 01:28:17 10° N 01:28:17 10° N visible
6 Apr ? 00:26:12 10° NNE 00:26:15 10° NNE 00:26:15 10° NNE visible
7 Apr ? 00:43:26 10° N 00:43:48 12° N 00:43:48 12° N visible
8 Apr ? 01:00:47 10° N 01:01:21 14° N 01:01:21 14° N visible
9 Apr ? 01:18:13 10° N 01:18:54 14° N 01:18:54 14° N visible
10 Apr ? 01:35:49 10° NNW 01:36:27 13° NNW 01:36:27 13° NNW visible
11 Apr ? 00:16:27 10° NNE 00:16:49 12° NNE 00:16:49 12° NNE visible
11 Apr ? 01:53:37 10° NNW 01:53:59 11° NNW 01:53:59 11° NNW visible
12 Apr ? 00:33:36 10° NNE 00:34:21 15° NNE 00:34:21 15° NNE visible
13 Apr ? 00:50:51 10° N 00:51:53 17° N 00:51:53 17° N visible
